Date,TemperatureHighF,TemperatureAvgF,TemperatureLowF,DewpointHighF,DewpointAvgF,DewpointLowF,HumidityHigh,HumidityAvg,HumidityLow,PressureMaxIn,PressureMinIn,WindSpeedMaxMPH,WindSpeedAvgMPH,GustSpeedMaxMPH,PrecipitationSumIn
2013-9-6,99.7,83.2,72.5,77.1,72.0,68.2,97,73,38,30.15,30.03,4,1,4,0.00
2013-9-7,102.0,83.8,71.1,74.4,69.9,66.1,97,68,35,30.10,29.99,4,1,4,0.00
2013-9-8,101.7,84.0,69.3,73.7,68.6,64.2,98,65,32,30.05,29.97,4,1,4,0.00
2013-9-9,100.6,83.7,69.6,72.8,69.0,66.6,95,66,36,30.09,29.99,4,1,4,0.00
2013-9-10,99.9,79.1,71.1,74.2,70.6,68.2,95,79,39,30.17,30.06,4,1,4,0.00
2013-9-11,101.1,86.5,77.7,70.3,67.7,66.0,78,56,34,30.11,30.07,7,2,7,0.00
2013-9-12,103.3,91.7,69.8,75.3,65.9,64.2,96,46,31,30.10,29.95,4,2,4,0.00
2013-9-13,100.8,89.3,73.9,72.9,68.1,64.8,94,54,33,29.99,29.86,8,2,8,0.00
2013-9-14,100.4,82.4,67.6,72.5,64.0,58.5,94,58,27,30.02,29.91,5,2,5,0.00
2013-9-15,100.6,82.3,68.4,71.3,65.6,59.0,81,60,36,30.09,30.00,8,2,8,0.00
2013-9-16,102.6,84.1,71.1,75.3,69.9,65.0,95,66,33,30.13,30.03,9,2,9,0.00
2013-9-17,102.9,84.5,70.0,72.4,66.3,60.1,92,60,26,30.14,30.00,9,1,9,0.00
2013-9-18,99.9,81.3,71.1,73.3,69.0,65.2,91,69,38,30.12,30.00,11,2,11,0.00
2013-9-19,98.1,79.5,71.4,75.5,72.0,68.4,97,81,42,30.09,29.99,14,2,14,0.07
2013-9-20,97.5,80.2,73.8,77.6,74.1,70.0,99,84,42,30.04,29.83,10,2,10,0.04
2013-9-21,77.7,77.5,77.4,76.5,76.3,76.0,96,96,95,29.84,29.81,4,2,4,0.11
2013-9-22,89.6,73.4,62.1,69.0,60.3,52.8,99,69,31,29.87,29.80,5,2,5,0.00
2013-9-23,98.6,82.3,61.9,73.9,69.6,56.2,91,68,41,29.90,29.82,6,2,6,0.00
2013-9-24,82.0,76.2,70.5,78.9,74.0,70.0,98,93,83,29.90,29.81,7,2,7,0.20
2013-9-25,95.4,77.8,66.7,80.1,65.3,10.3,99,71,10,29.88,29.80,7,1,7,0.00
2013-9-26,97.0,76.7,62.2,77.0,63.9,60.8,99,70,31,29.99,29.84,5,1,5,0.00
2013-9-27,96.6,78.3,67.6,74.9,67.6,63.5,99,73,39,30.07,29.96,8,1,8,0.00
2013-9-28,97.3,77.3,65.5,67.3,64.1,60.1,95,68,35,30.11,30.03,6,1,6,0.00
2013-9-29,78.1,70.4,63.9,71.7,66.6,59.9,95,88,74,30.07,29.97,4,1,4,0.01
2013-9-30,85.6,75.0,67.8,72.2,68.8,64.4,94,82,63,30.00,29.93,6,2,6,0.01